Regional Weather Roundup
Issued by NWS

Home | Current Version | Previous Version | Text Only | Print | Product List | Glossary On
Versions: 1 2 3 4 5 6 7 8 9 10 11 12 13 14 15 16 17 18 19 20 21 22 23 24 25 26 27 28 29 30 31 32 33 34 35 36 37 38 39 40 41 42 43 44 45 46 47 48 49 50
000
ASUS43 KBIS 171210
RWRND

NORTH DAKOTA REGIONAL WEATHER ROUNDUP
NATIONAL WEATHER SERVICE BISMARCK ND
700 AM CDT THU AUG 17 2017

NOTE: "FAIR" INDICATES FEW OR NO CLOUDS BELOW 12,000 FEET WITH NO
SIGNIFICANT WEATHER AND/OR OBSTRUCTIONS TO VISIBILITY.


NDZ001>003-009>011-017-171300-
NORTHWEST NORTH DAKOTA

CITY           SKY/WX    TMP DP  RH WIND       PRES   REMARKS
WILLISTON      PTCLDY    64  53  67 S5        29.82S
6HR MIN TEMP:  60; 6HR MAX TEMP:  72;

MINOT          CLOUDY    59  55  87 CALM      29.86R
MINOT AFB      CLOUDY    58  54  86 SE3       29.84F
$$

NDZ018>021-031>035-040>046-171300-
SOUTHWEST NORTH DAKOTA

CITY           SKY/WX    TMP DP  RH WIND       PRES   REMARKS
BISMARCK       CLOUDY    57  54  89 CALM      29.91R
6HR MIN TEMP:  53; 6HR MAX TEMP:  59;

DICKINSON      CLEAR     56  50  80 S10       29.86S
GARRISON         N/A     57  55  93 SE3       29.87S
6HR MIN TEMP:  55; 6HR MAX TEMP:  61;

HETTINGER ARPT CLEAR     56  47  71 SE7       29.91F
$$

NDZ004>008-012>016-024-026-027-054-171300-
NORTHEAST NORTH DAKOTA

CITY           SKY/WX    TMP DP  RH WIND       PRES   REMARKS
GRAND FORKS    FOG       60  60 100 NW9       29.83R VSB 1/4
GRND FRKS AFB  FOG       59  59 100 N8        29.84S VSB 3/8
DEVILS LAKE    FOG       55  55 100 CALM      29.88R VSB 1/4
$$

NDZ022-023-025-028>030-036>039-047>053-171300-
SOUTHEAST NORTH DAKOTA

CITY           SKY/WX    TMP DP  RH WIND       PRES   REMARKS
FARGO          CLOUDY    61  61 100 N15G25    29.79R
6HR MIN TEMP:  61; 6HR MAX TEMP:  65;

JAMESTOWN      CLEAR     55  53  93 NW6       29.86R
$$




USA.gov is the U.S. government's official web portal to all federal, state and local government web resources and services.